Weather History for Beatrice, NE

Change the Weather History Date:

Saturday, January 22, 2011

  Actual Average Record
Temperature  
Mean Temperature 20 °F -  
Max Temperature 34 °F 38 °F 60 °F (2002)
Min Temperature 7 °F 19 °F -13 °F (1954)
Degree Days  
Heating Degree Days 44    
Moisture  
Dew Point 17 °F    
Average Humidity 90    
Maximum Humidity 97    
Minimum Humidity 81    
Precipitation  
Precipitation 0.00 in - - ()
Sea Level Pressure  
Sea Level Pressure 29.81 in    
Wind  
Wind Speed 3 mph (SE)    
Max Wind Speed 18 mph    
Max Gust Speed 28 mph    
Visibility 7 miles    
Events Snow    
Averages and records for this station are not official NWS values.
T = Trace of Precipitation, MM = Missing Value Source: NWS Daily Summary

Daily Weather History Graph

Daily Weather History Graph

Search for Another Location

Airport:

Trip Planner

Search our weather history database for the weather conditions in past years. The results will help you decide how hot, cold, wet, or windy it might be!

Date:

Astronomy

Jan. 22, 2011 Rise Set
Actual Time 7:44 AM CST 5:33 PM CST
Civil Twilight 7:14 AM CST 6:02 PM CST
Nautical Twilight 6:41 AM CST 6:35 PM CST
Astronomical Twilight 6:09 AM CST 7:08 PM CST
Moon 9:24 PM CST (1/22) 9:10 AM CST (1/22)
Length of Visible Light 10h 47m
Length of Day
9h 49m
Waning Gibbous, 89% of the Moon is Illuminated
Jan 22
Waning Gibbous
Jan 26
Last Quarter
Feb 2
New
Feb 11
First Quarter
Feb 18
Full

Hourly Weather History & Observations

Time (CST) Temp. Windchill Dew Point Humidity Pressure Visibility Wind Dir Wind Speed Gust Speed Precip Events Conditions
12:10 AM 17.8 °F - 15.4 °F 91% 29.90 in 7.0 mi Calm Calm - N/A   Mostly Cloudy
12:30 AM 17.1 °F - 14.7 °F 91% 29.90 in 7.0 mi Calm Calm - N/A   Overcast
12:50 AM 17.4 °F 12.1 °F 14.9 °F 90% 29.88 in 7.0 mi SE 3.5 mph - N/A   Scattered Clouds
1:10 AM 15.8 °F 7.2 °F 13.5 °F 90% 29.88 in 7.0 mi South 5.8 mph - N/A   Mostly Cloudy
1:30 AM 16.9 °F 9.8 °F 14.9 °F 92% 29.88 in 7.0 mi South 4.6 mph - N/A   Mostly Cloudy
1:50 AM 14.5 °F 5.7 °F 12.7 °F 93% 29.88 in 7.0 mi South 5.8 mph - N/A   Clear
2:10 AM 14.9 °F - 13.1 °F 93% 29.87 in 5.0 mi Calm Calm - N/A   Clear
2:30 AM 14.4 °F 8.6 °F 13.1 °F 95% 29.87 in 4.0 mi South 3.5 mph - N/A   Clear
2:50 AM 13.3 °F - 11.8 °F 94% 29.86 in 5.0 mi Calm Calm - N/A   Clear
3:10 AM 12.0 °F - 10.6 °F 94% 29.86 in 5.0 mi Calm Calm - N/A   Clear
3:30 AM 10.2 °F - 8.4 °F 92% 29.85 in 7.0 mi Calm Calm - N/A   Clear
3:50 AM 12.0 °F 5.9 °F 10.6 °F 94% 29.85 in 4.0 mi East 3.5 mph - N/A   Clear
4:10 AM 11.7 °F - 9.7 °F 92% 29.85 in 5.0 mi Calm Calm - N/A   Clear
4:30 AM 9.1 °F - 6.6 °F 89% 29.84 in 5.0 mi Calm Calm - N/A   Clear
4:50 AM 9.3 °F - 7.5 °F 92% 29.84 in 4.0 mi Calm Calm - N/A   Clear
5:10 AM 9.5 °F - 7.3 °F 91% 29.83 in 5.0 mi Calm Calm - N/A   Clear
5:30 AM 9.3 °F - 7.2 °F 91% 29.84 in 7.0 mi Calm Calm - N/A   Clear
5:50 AM 10.2 °F - 8.2 °F 92% 29.83 in 4.0 mi Calm Calm - N/A   Clear
6:10 AM 9.3 °F 1.0 °F 7.5 °F 92% 29.81 in 4.0 mi ESE 4.6 mph - N/A   Clear
6:30 AM 7.7 °F - 5.5 °F 91% 29.83 in 3.0 mi Calm Calm - N/A   Clear
6:50 AM 10.0 °F - 8.1 °F 92% 29.82 in 3.0 mi Calm Calm - N/A   Clear
7:10 AM 9.3 °F - 7.3 °F 92% 29.82 in 4.0 mi Calm Calm - N/A   Clear
7:30 AM 9.7 °F - 7.7 °F 92% 29.83 in 4.0 mi Calm Calm - N/A   Mostly Cloudy
7:50 AM 8.8 °F - 6.8 °F 92% 29.83 in 3.0 mi Calm Calm - N/A   Overcast
8:10 AM 10.4 °F - 8.2 °F 91% 29.83 in 4.0 mi Calm Calm - N/A   Overcast
8:30 AM 10.8 °F - 8.8 °F 92% 29.83 in 4.0 mi Calm Calm - N/A   Mostly Cloudy
8:50 AM 11.8 °F - 9.9 °F 92% 29.84 in 4.0 mi Calm Calm - N/A   Scattered Clouds
9:10 AM 12.6 °F - 10.8 °F 92% 29.83 in 4.0 mi Calm Calm - N/A   Clear
9:30 AM 13.6 °F 7.7 °F 12.0 °F 93% 29.82 in 4.0 mi ESE 3.5 mph - N/A   Clear
9:50 AM 14.7 °F - 13.1 °F 93% 29.82 in 4.0 mi Calm Calm - N/A   Clear
10:10 AM 16.2 °F 10.6 °F 14.7 °F 94% 29.81 in 4.0 mi ESE 3.5 mph - N/A   Clear
10:30 AM 18.0 °F 12.7 °F 16.5 °F 94% 29.81 in 4.0 mi ESE 3.5 mph - N/A   Clear
10:50 AM 19.8 °F 11.9 °F 18.7 °F 96% 29.81 in 7.0 mi ESE 5.8 mph - N/A   Mostly Cloudy
11:10 AM 21.9 °F 17.2 °F 21.0 °F 96% 29.81 in 7.0 mi SE 3.5 mph - N/A   Overcast
11:30 AM 24.1 °F 19.7 °F 23.2 °F 96% 29.81 in 10.0 mi SE 3.5 mph - N/A   Overcast
11:50 AM 25.5 °F 17.8 °F 24.8 °F 97% 29.78 in 10.0 mi ESE 6.9 mph - N/A   Overcast
12:10 PM 26.4 °F 19.8 °F 25.0 °F 94% 29.78 in 10.0 mi ESE 5.8 mph - N/A   Overcast
12:30 PM 28.4 °F 22.2 °F 25.3 °F 88% 29.78 in 10.0 mi SE 5.8 mph - N/A   Overcast
12:50 PM 30.4 °F 24.5 °F 26.2 °F 85% 29.76 in 10.0 mi SE 5.8 mph - N/A   Mostly Cloudy
1:10 PM 31.8 °F 28.5 °F 27.1 °F 83% 29.76 in 10.0 mi SE 3.5 mph - N/A   Mostly Cloudy
1:30 PM 32.9 °F 25.3 °F 28.0 °F 82% 29.76 in 10.0 mi SE 9.2 mph - N/A   Overcast
1:50 PM 33.6 °F 27.5 °F 28.4 °F 81% 29.75 in 10.0 mi SE 6.9 mph - N/A   Overcast
2:10 PM 34.2 °F 30.0 °F 28.9 °F 81% 29.75 in 10.0 mi ESE 4.6 mph - N/A   Overcast
2:30 PM 34.5 °F 28.6 °F 29.1 °F 81% 29.75 in 10.0 mi SE 6.9 mph - N/A   Overcast
2:50 PM 34.2 °F 27.5 °F 28.8 °F 81% 29.74 in 10.0 mi ESE 8.1 mph - N/A   Overcast
3:10 PM 33.6 °F 24.1 °F 29.3 °F 84% 29.71 in 5.0 mi East 13.8 mph - N/A Snow Light Snow
3:30 PM 32.2 °F 21.4 °F 28.6 °F 87% 29.70 in 10.0 mi ESE 16.1 mph 21.9 mph N/A   Overcast
3:50 PM 32.0 °F 21.2 °F 28.2 °F 86% 29.71 in 10.0 mi ESE 16.1 mph - N/A   Overcast
4:10 PM 32.0 °F 20.8 °F 28.0 °F 85% 29.70 in 10.0 mi ESE 17.3 mph 21.9 mph N/A   Overcast
4:30 PM 31.6 °F 20.0 °F 27.7 °F 85% 29.70 in 10.0 mi ESE 18.4 mph 23.0 mph N/A   Overcast
4:50 PM 31.3 °F 20.3 °F 27.5 °F 86% 29.70 in 10.0 mi ESE 16.1 mph 27.6 mph N/A   Overcast
5:10 PM 30.9 °F 21.2 °F 27.1 °F 86% 29.73 in 7.0 mi ESE 12.7 mph 17.3 mph N/A   Overcast
5:30 PM 30.2 °F 24.3 °F 26.6 °F 86% 29.76 in 7.0 mi East 5.8 mph - N/A   Overcast
5:50 PM 29.7 °F 20.7 °F 26.4 °F 88% 29.77 in 7.0 mi East 10.4 mph - N/A   Overcast
6:10 PM 29.3 °F 20.8 °F 26.4 °F 89% 29.77 in 7.0 mi East 9.2 mph - N/A   Overcast
6:30 PM 29.5 °F 21.1 °F 26.6 °F 89% 29.78 in 7.0 mi East 9.2 mph - N/A   Overcast
6:50 PM 29.3 °F 20.2 °F 26.6 °F 90% 29.80 in 1.8 mi East 10.4 mph - N/A Snow Light Snow
7:10 PM 29.1 °F 20.0 °F 27.0 °F 92% 29.80 in 2.5 mi East 10.4 mph - N/A Snow Light Snow
7:30 PM 28.4 °F 17.5 °F 26.8 °F 94% 29.81 in 1.5 mi East 13.8 mph 18.4 mph N/A Snow Light Snow
7:50 PM 28.4 °F 18.0 °F 27.1 °F 95% 29.81 in 2.0 mi East 12.7 mph - N/A Snow Light Snow
8:10 PM 28.6 °F 18.7 °F 27.1 °F 94% 29.82 in 4.0 mi East 11.5 mph 16.1 mph N/A Snow Light Snow
8:30 PM 29.3 °F 19.1 °F 28.0 °F 95% 29.83 in 2.0 mi East 12.7 mph 18.4 mph N/A   Overcast
8:50 PM 29.3 °F 17.7 °F 28.0 °F 95% 29.84 in 2.0 mi East 16.1 mph 20.7 mph 0.01 in   Overcast
9:10 PM 29.1 °F 18.4 °F 27.7 °F 94% 29.85 in 2.0 mi East 13.8 mph 19.6 mph N/A   Overcast
9:30 PM 28.4 °F 17.0 °F 27.1 °F 95% 29.87 in 2.0 mi ENE 15.0 mph - N/A   Overcast
9:50 PM 28.2 °F 18.3 °F 26.6 °F 94% 29.88 in 2.5 mi ENE 11.5 mph 20.7 mph N/A   Overcast
10:10 PM 27.5 °F 16.8 °F 26.1 °F 94% 29.90 in 4.0 mi ENE 12.7 mph 18.4 mph N/A   Overcast
10:30 PM 27.3 °F 17.1 °F 25.7 °F 94% 29.91 in 2.5 mi NE 11.5 mph 18.4 mph N/A Snow Light Snow
10:50 PM 24.1 °F 11.0 °F 22.1 °F 92% 29.93 in 2.5 mi NE 16.1 mph 21.9 mph 0.01 in Snow Light Snow
11:10 PM 21.6 °F 7.3 °F 19.8 °F 93% 29.94 in 2.5 mi NE 17.3 mph 23.0 mph N/A Snow Light Snow
11:30 PM 20.7 °F 7.1 °F 18.7 °F 92% 29.96 in 3.0 mi NE 15.0 mph 21.9 mph N/A Snow Light Snow
11:50 PM 19.2 °F 5.8 °F 16.9 °F 91% 29.97 in 4.0 mi NNE 13.8 mph 23.0 mph N/A   Overcast